Printer-friendly version

IAU Minor Planet Center

Minor Planet Center

MPEC 2008-F64 : 2008 FW6

The following Minor Planet Electronic Circular may be linked-to from your own Web pages, but must not otherwise be redistributed electronically.


Read MPEC 2008-F63 Read MPEC 2008-F65


M.P.E.C. 2008-F64                                Issued 2008 Mar. 31, 20:57 UT

     The Minor Planet Electronic Circulars contain information on unusual
         minor planets and routine data on comets.  They are published
   on behalf of Commission 20 of the International Astronomical Union by the
          Minor Planet Center, Smithsonian Astrophysical Observatory,
                          Cambridge, MA 02138, U.S.A.

             Prepared using the Tamkin Foundation Computer Network

                              MPC@CFA.HARVARD.EDU
          URL http://www.cfa.harvard.edu/iau/mpc.html  ISSN 1523-6714

                                   2008 FW6

Observations:
     K08F06W* C2008 03 30.18598 11 42 22.80 +49 35 26.2          18.8   EF064704
     K08F06W  C2008 03 30.19770 11 42 26.03 +49 33 45.8          19.0   EF064704
     K08F06W  C2008 03 30.20994 11 42 29.15 +49 32 01.7          19.2   EF064704
     K08F06W  C2008 03 30.22168 11 42 32.27 +49 30 21.4          19.3   EF064704
     K08F06W  C2008 03 30.84084 11 45 24.00 +48 02 59.2          19.1 R EF064473
     K08F06W  C2008 03 30.84503 11 45 25.37 +48 02 17.4                 EF064J95
     K08F06W  C2008 03 30.84630 11 45 25.31 +48 02 14.3          18.8 R EF064473
     K08F06W  C2008 03 30.84923 11 45 26.42 +48 01 42.8                 EF064J95
     K08F06W  C2008 03 30.85341 11 45 27.47 +48 01 08.5          19.1 R EF064J95
     K08F06W  C2008 03 30.86728 11 45 30.47 +47 59 22.4          19.7 V EF064595
     K08F06W  C2008 03 30.87896 11 45 33.27 +47 57 46.1          19.6 V EF064595
     K08F06W  C2008 03 31.08856 11 46 23.51 +47 28 45.8                 EF064118
     K08F06W  C2008 03 31.09120 11 46 24.13 +47 28 23.5                 EF064118
     K08F06W  C2008 03 31.09384 11 46 24.77 +47 28 02.2                 EF064118
     K08F06W 1C2008 03 31.20336 11 46 57.03 +47 13 15.2                 EF064658
     K08F06W 1C2008 03 31.20495 11 46 57.39 +47 13 02.6                 EF064658
     K08F06W 1C2008 03 31.20655 11 46 57.78 +47 12 49.6                 EF064658
     K08F06W  C2008 03 31.21730 11 46 59.93 +47 11 37.4          18.7 R EF064854
     K08F06W  C2008 03 31.21816 11 47 00.20 +47 11 31.8          19.1 R EF064854
     K08F06W  C2008 03 31.21903 11 47 00.46 +47 11 24.2          18.7 R EF064854
     K08F06W  C2008 03 31.23175 11 47 03.26 +47 09 42.1          19.1 V EF064G96
     K08F06W  C2008 03 31.23684 11 47 04.41 +47 09 01.2          19.2 V EF064G96
     K08F06W  C2008 03 31.24600 11 47 06.43 +47 07 47.1          19.2 V EF064G96
     K08F06W 5C2008 03 31.24855 11 47 07.46 +47 07 23.7          19.0 R EF064673
     K08F06W  C2008 03 31.25138 11 47 07.65 +47 07 03.2          19.3 V EF064G96
     K08F06W 5C2008 03 31.25590 11 47 09.08 +47 06 25.1                 EF064673
     K08F06W 5C2008 03 31.26042 11 47 10.12 +47 05 48.6                 EF064673
     K08F06W 5C2008 03 31.26354 11 47 10.81 +47 05 23.2                 EF064673
     K08F06W  C2008 03 31.83476 11 49 27.26 +45 49 08.2          19.2 V EF064B03
     K08F06W  C2008 03 31.84259 11 49 28.91 +45 48 07.9          19.2 V EF064B03
     K08F06W  C2008 03 31.85041 11 49 30.59 +45 47 06.6          19.2 V EF064B03

Observer details:
118 Modra.  Observers S. Gajdos, J. Vilagi.  0.6-m f/5.5 reflector + CCD.
473 Remanzacco.  Observers L. Donato, M. Gonano, V. Gonano, E. Guido,
    V. Santini, G. Sostero.  0.45-m f/4.4 Newtonian reflector + CCD.
595 Farra d'Isonzo.  Observers L. Bittesini, G. Lombardi, E. Pettarin,
    F. Piani, F. Fabris.  Measurer E. Pettarin.  0.30-m f/4.5 reflector + CCD.
658 National Research Council of Canada.  Observers D. D. Balam, R. M. Robb.
    Measurers D. D. Balam, P. Wiegert, A. Domokos.  1.82-m Plaskett telescope
    + CCD.
673 Table Mountain Observatory, Wrightwood.  Observer J. Young.  0.61-m f/16
    Cassegrain + CCD.
704 Lincoln Laboratory ETS, New Mexico.  Observers M. Bezpalko, D. Torres,
    R. Kracke, G. Spitz, J. Kistler.  Measurers J. Stuart, S. Scruggs.  1.0-m
    f/2.15 reflector + CCD.
854 Sabino Canyon Observatory, Tucson.  Observer J. E. McGaha.  0.36-m f/10.0
    Schmidt-Cassegrain + CCD.
B03 Alter Satzberg, Vienna.  Observer M. Pietschnig.  0.35-m f/5.8
    Schmidt-Cassegrain + CCD.
G96 Mt. Lemmon Survey.  Observer A. Boattini.  Measurers E. C. Beshore,
    A. Boattini, G. J. Garradd, A. R. Gibbs, A. D. Grauer, R. E. Hill,
    R. A. Kowalski, S. M. Larson, R. H. McNaught.  1.5-m reflector + CCD.
J95 Great Shefford.  Observer P. Birtwhistle.  0.40-m f/6.0 Schmidt-Cassegrain
    + CCD.

Orbital elements:
2008 FW6                                            PHA, Earth MOID = 0.0393 AU
Epoch 2008 May 14.0 TT = JDT 2454600.5                  MPC
M  28.46314              (2000.0)            P               Q
n   0.29369608     Peri.   33.75918     -0.41122774     -0.90469913
a   2.2414925      Node    80.74331     +0.80938170     -0.41862260
e   0.6335419      Incl.    6.48111     +0.41927677     -0.07921238
P   3.36           H   20.9           G   0.15           U   7
Residuals in seconds of arc
080330 704  0.1-  0.2-    080331 118  0.1-  0.3-    080331 G96  0.3-  0.2+
080330 704  0.9+  0.7-    080331 118  0.4-  0.6-    080331 673  0.0   0.2-
080330 704  0.4-  0.5-    080331 118  0.5-  0.0     080331 G96  0.1-  0.1-
080330 704  0.2-  0.6-    080331 658  0.4-  0.7-    080331 673  0.3-  0.5+
080330 473  0.1+  0.3-    080331 658  0.5-  0.5-    080331 673  0.0   0.5+
080330 J95  0.9-  0.1+    080331 658  0.3-  0.6-    080331 673  0.1-  0.3+
080330 473  0.2-  0.3-    080331 854  0.8-  1.4-    080331 B03  0.5-  0.7-
080330 J95  0.8-  0.1-    080331 854  0.1-  0.1-    080331 B03  0.6-  0.0
080330 J95  0.7-  0.1-    080331 854  0.6+  0.6-    080331 B03  0.3-  0.4-
080330 595  0.3+  0.3+    080331 G96  0.0   0.1+
080330 595  0.0   0.2+    080331 G96  0.1+  0.3+

Ephemeris:
2008 FW6                 a,e,i = 2.24, 0.63, 6                   q = 0.8214
Date    TT    R. A. (2000) Decl.     Delta      r     Elong.  Phase     V
2008 03 25    10 59.84   +63 35.4    0.153    1.066   113.0    59.4    19.1
2008 04 04    11 59.30   +39 30.5    0.212    1.155   133.1    39.2    19.4
2008 04 14    12 16.34   +25 35.9    0.298    1.247   140.7    30.7    20.1
2008 04 24    12 26.30   +17 08.4    0.401    1.341   141.0    28.2    20.8
2008 05 04    12 34.69   +11 24.4    0.519    1.435   137.6    28.3    21.5

Gareth V. Williams           (C) Copyright 2008 MPC           M.P.E.C. 2008-F64

Read MPEC 2008-F63 Read MPEC 2008-F65


Our Web policy. Index to the CBAT/MPC/ICQ pages.


Valid HTML 4.01!